Location: ????????
(60.4333°N, 46.4710°E)
Time: 04:25:15
(UTC+00:00)

Cosmos 2227 Rocket - Pass Details

Date: 25 November 2020
Orbit: 837 x 847 km, 71.0° (Epoch: 19 January)

Event Time Altitude Azimuth Distance (km) Brightness Sun altitude
Exits shadow 23:34:57 22° 74° (ENE) 1,755 4.3 -40.3°
Drops below altitude 10° 23:37:38 10° 51° (NE) 2,471 5.3 -40.0°
Sets 23:40:23 0° 40° (NE) 3,411 6.2 -39.7°
